Regional Weather Roundup
Issued by NWS Wakefield, VA

Home | Current Version | Previous Version | Graphics & Text | Print | Product List | Glossary On
Versions: 1 2 3 4 5 6 7 8 9 10 11 12 13 14 15 16 17 18 19 20 21 22 23 24 25 26 27 28 29 30 31 32 33 34 35 36 37 38 39 40 41 42 43 44 45 46 47 48 49 50
000
ASUS41 KAKQ 242015
RWRAKQ

REGIONAL WEATHER ROUNDUP
NATIONAL WEATHER SERVICE WAKEFIELD VA
400 PM EDT FRI MAR 24 2017

Note: "fair" indicates few or no clouds below 12,000 feet with no
significant weather and/or obstructions to visibility. * = Denotes
station may not report precipitation (e.g., rain,snow,etc.),
thunder or fog.

VAZ042-051-052>054-056-242100-
NORTHERN VIRGINIA

CITY           SKY/WX    TMP DP  RH WIND       PRES   REMARKS
WASH NATIONAL  PTSUNNY   58  35  42 S17G24    30.25F
DULLES         PTSUNNY   59  36  42 SW16      30.23F
FORT BELVOIR   CLOUDY    59  33  37 S10G18    30.24F
QUANTICO       CLOUDY    58  38  47 SW12      30.27F
FREDERICKSBRG* SUNNY     61  37  41 SW17      30.27F
STAFFORD*      SUNNY     59  34  39 SW13G18   30.31F
WARRENTON      CLOUDY    60  32  33 SW9G16    30.25F
CULPEPER*      MOSUNNY   63  39  41 SW10G17   30.25F
MANASSAS*      CLOUDY    60  36  40 SW10      30.25F
LEESBURG*      CLOUDY    61  41  48 S13       30.23F
WINCHESTER     CLOUDY    63  41  45 S7        30.18F
FRONT ROYAL*     N/A    N/A N/A N/A MISG        N/A
LURAY*         CLOUDY    68  43  40 S14G20    30.20F
$$

VAZ048-049-060>072-079>083-242100-
CENTRAL AND SOUTH CENTRAL VIRGINIA

CITY           SKY/WX    TMP DP  RH WIND       PRES   REMARKS
RICHMOND       PTSUNNY   69  41  36 S18       30.30F
CHESTERFIELD*  FAIR      70  36  28 SW13G21   30.32F
PETERSBURG*    MOSUNNY   69  41  36 SW15G24   30.32F
HANOVER        SUNNY     69  41  36 SW13G23   30.30F
TAPPAHANNOCK*  SUNNY     68  19  15 SW14G24   30.30F
QUINTON*       FAIR      67  40  37 SW13G20   30.31F
CHARLOTTSVILLE MOSUNNY   67  36  31 SW10      30.25F
GORDONSVILLE*  PTCLDY    63  37  38 SW15      30.25F
ORANGE*        MOSUNNY   61  34  36 S13G23    30.27F
LOUISA*        SUNNY     66  41  39 SW12G20   30.26F
BUMPASS*       FAIR      62  37  39 SW14G22   30.28F
FARMVILLE*     SUNNY     70  46  41 SW12G20   30.29F
CREWE*         MOCLDY    68  46  44 SW7G18    30.31F
FORT PICKETT*  CLOUDY    68  36  31 SW17G32   30.32F
CHASE CITY*    FAIR      67  43  41 SW9G18    30.34S
CLARKSVILLE*   FAIR      68  46  45 SW16G23   30.34F
SOUTH HILL*    SUNNY     68  47  47 SW12G20   30.40F
LAWRENCEVILLE* FAIR      69  44  41 SW21      30.33F
EMPORIA*       SUNNY     68  45  42 S12G23    30.36F
$$

VAZ088>098-242100-
SOUTHEAST VIRGINIA

CITY           SKY/WX    TMP DP  RH WIND       PRES   REMARKS
NORFOLK        CLOUDY    68  39  34 SW22G28   30.32F
VIRGINIA BEACH CLOUDY    66  38  35 SW20G28   30.33F
NORFOLK NAVAL  PTSUNNY   69  40  34 SW17G24   30.34F
WEST POINT*    MOSUNNY   68  35  29 SW13G21   30.32F
SALUDA*        FAIR      66  38  34 SW10G22   30.31F
NEWPORT NEWS   PTSUNNY   68  41  37 SW18G25   30.33F
LANGLEY AFB    CLOUDY    66  42  42 SW22G28   30.32F
FORT EUSTIS    MOSUNNY   66  42  41 SW10G20   30.30F
WILLIAMSBURG*  SUNNY     70  43  37 SW14G22   30.33F
HR EXEC AP*    FAIR      70  43  37 SW13G25   30.32F
FRANKLIN*      SUNNY     68  44  40 SW15      30.35F
US460-WAKEFLD  SUNNY     68  44  42 SW12G22   30.33F
$$

VAZ020-022-025-037-045-242100-
WEST CENTRAL AND SOUTHWEST VIRGINIA

CITY           SKY/WX    TMP DP  RH WIND       PRES   REMARKS
STAUNTON*      MOSUNNY   66  38  35 S22       30.24F
WAYNESBORO*    CLOUDY    66  41  40 S8        30.25F
HOT SPRINGS VA CLOUDY    63  27  25 S9        30.29F
LYNCHBURG      SUNNY     66  43  43 S16       30.32F
DANVILLE       SUNNY     68  46  45 SW15G23   30.34F
SOUTH BOSTON*  FAIR      69  44  41 SW17G24   30.34F
MARTINSVILLE   MOSUNNY   67  43  41 SW5       30.36F
ROANOKE        MOSUNNY   69  41  36 VRB6      30.30F
BLACKSBURG     CLOUDY    66  43  42 S10       30.33F
DUBLIN*        PTSUNNY   70  42  36 S10       30.31F
MARION*        CLOUDY    68  47  46 SW14G21   30.34F
HILLSVILLE*    SUNNY     63  45  51 CALM      30.33F
RICHLANDS*     CLOUDY    65  46  50 CALM      30.32F
WISE*          CLOUDY    70  43  37 W10G16    30.32F
ABINGDON*      CLOUDY    71  46  40 W10       30.32F
$$

MDZ021>025-VAZ099-100-242100-
SOUTHERN MARYLAND AND THE DELMARVA PENINSULA

CITY           SKY/WX    TMP DP  RH WIND       PRES   REMARKS
PATUXENT RIVER PTSUNNY   62  38  40 SW12G21   30.28F
BAY BRIDGE APT MOSUNNY   55  32  41 S16       30.25F
LEONARDTOWN    SUNNY     61  32  33 SW13      30.28F
DOVER          MOSUNNY   59  36  41 S22G28    30.23F
GEORGETOWN     LGT RAIN  62  30  29 SW25G31   30.29F
EASTON         CLOUDY    57  30  35 SW17G29   30.31F
CAMBRIDGE      SUNNY     59  32  36 S14G22    30.29F
SALISBURY      CLOUDY    62  33  33 SW18G28   30.31S
OCEAN CITY     CLOUDY    51  41  68 S12G21    30.33F
WALLOPS ISLAND SUNNY     53  42  66 S18       30.34F
ACCOMACK*      PTSUNNY   57  42  58 S14G20    30.33F
$$

NCZ012>017-030>032-242100-
NORTH CENTRAL AND EASTERN NORTH CAROLINA

CITY           SKY/WX    TMP DP  RH WIND       PRES   REMARKS
ROANOKE RAPIDS MOCLDY    68  46  45 SW14G24   30.36F
RALEIGH        MOSUNNY   70  46  42 SW16      30.38F
ELIZABETH CITY SUNNY     69  43  38 SW18G25   30.38F
AHOSKIE*         N/A     68  46  44 SW7       30.37F
EDENTON*       MOSUNNY   70  44  39 SW9       30.39F
CURRITUCK*     MOSUNNY   68  41  38 SW10G18   30.37F
KILL DEVIL HLS NOT AVBL
MANTEO         SUNNY     62  47  58 SW10      30.41F
CAPE HATTERAS  SUNNY     67  50  54 SW8       30.44F
TARBORO*       NOT AVBL
GOLDSBORO      PTSUNNY   73  43  34 SW9       30.38F
WASHINGTON     MOSUNNY   70  44  38 SW13      30.39F
GREENVILLE     PTSUNNY   72  45  37 W12G22    30.39F
NEW BERN       PTSUNNY   70  47  43 S13G21    30.42F
WILMINGTON     SUNNY     70  49  47 S14G23    30.42F
$$

VAZ048-242100-
ELSEWHERE

CITY           SKY/WX    TMP DP  RH WIND       PRES   REMARKS
HARRISBURG PA  CLOUDY    55  40  56 SW12G18   30.16F
BALTIMORE      CLOUDY    58  33  39 SW14      30.23F
ANNAPOLIS      MOSUNNY   55  37  50 S13       30.24F
ANDREWS AFB    MOSUNNY   59  33  37 SW15      30.24F
PHILADELPHIA   PTSUNNY   57  33  40 SW15G25   30.22F
HENDERSON NC   SUNNY     65  44  45 S18G25    30.35F
GREENSBORO     MOSUNNY   67  45  45 SW14G22   30.36F
ROCKY MOUNT    CLOUDY    68  47  46 SW12      30.39F
$$

VAZ100-242100-
MARINE

STATION/POSITION TIME  TEMP    WIND        PRES    WAVE   SWELL
                       AIR SEA DIR/SP/G            HT/PER HT/PER
                 (UTC) (F)     (DEG/KT/KT) (MB)    (FT/S) (FT/S)
CAPE MAY NJ      1948   50 43  170/ 11/ 15 1025.0F
LEWES DE         1948   62 42  250/ 13/ 21 1025.1F
OCEAN-CITY-INLET 1948   46 45  220/ 19/ 24 1027.3F
WACHAPREAGUE VA  1948   52 49  200/ 10/ 14 1027.2F
THOMAS POINT MD  2000   46 44  170/ 21/ 22   N/A
GOOSES REEF MD   2000   52 44  190/ 10/ 12 1025.7    1/ 2
COVE POINT MD    1948   46     170/ 14/ 17 1026.0F
SOLOMONS ISLAND  1948   59 45  220/ 10/ 18   N/A
BISHOPS HEAD MD  1948   53 47  190/ 16/ 18 1026.5F
PINEY POINT MD   1948          250/  5/  9   N/A
POTOMAC MD       2000   56 45  250/ 12/ 14 1025.1    2/ 3
CAMBRIDGE MD     1948   57 44  180/  9/ 15 1025.0F
LEWISETTA VA     1948   62 47  250/ 14/ 19 1025.5F
RAPPAHANNOCK LGT 1948          170/ 16/ 16 1027.3F
STINGRAY PT      1950   57     240/ 12/ 16 1027.4S
YORK RVR RNG VA  1948   61     240/ 16/ 19 1026.0F
YORKTOWN VA      1948   65 48  240/ 16/ 24 1026.2F
JAMESTOWN VA     2000   64 51  210/ 14/ 21   N/A
DOMINION TERM VA 1948   60     250/ 15/ 19 1027.3F
KIPTOPEKE VA     1948      48  170/ 11/ 11   N/A
CHES BAY BRIDGE  1948   61 49  240/ 16/ 19 1027.0F
CAPE HENRY VA    1948   65     210/ 10/ 17   N/A
WILLOUBY STN VA  1948   61     240/ 21/ 23 1027.6F
S CRANEY ISL VA  1948   66     220/ 11/ 22 1027.0F
CAPE HENRY BUOY  1942      47                N/A     3/ 6
CAPE CHARLES BUO 1951      47                N/A     3/ 8
OFFSHORE WE BUOY 1951      46                N/A     3/10
64NM E OF VA BCH 1950   53 51  190/ 14/ 16 1029.0F   3/11   2/11
DUCK PIER NC     1948   63 48  220/ 12/ 15 1028.7F
44100 DUCK FRF   1935      50                N/A     3/11   2/11
44056 DUCK FRF   1930      52                N/A     2/ 9
OREGON INLET NC  1942   57 51  190/ 13/ 16 1030.0F
HATTERAS NC      1948   64 53  210/  6/ 10 1030.3F
DIAMOND SHLS NC  1950   65 75  210/ 16/ 21 1030.7F   4/10   3/10
CAPE LOOKOUT NC  2000   66     200/ 13/ 16 1030.4F
$$



USA.gov is the U.S. government's official web portal to all federal, state and local government web resources and services.